BG5HLN-13 Weather Reports


time (UTC)temp
F
wind
direction
speed
knots
gust
knots
rain 1hr
in
rain 24hr
in
rain mn
in
humidity
%
barometer
mb
20260505093258 77 0 0.0 0.0 0.00 0.00 0.00 71 1011.1
20260505092258 77 0 0.0 0.0 0.00 0.00 0.00 70 1011.2
20260505091256 77 0 0.0 0.0 0.00 0.00 0.00 69 1011.3
20260505090258 78 0 0.0 0.0 0.00 0.00 0.00 69 1011.3
20260505085258 78 0 0.0 0.0 0.00 0.00 0.00 68 1011.4
20260505084257 78 0 0.0 0.0 0.00 0.00 0.00 67 1011.4
20260505083258 79 0 0.0 0.0 0.00 0.00 0.00 67 1011.5
20260505082257 79 0 0.0 0.0 0.00 0.00 0.00 66 1011.6
20260505081258 79 0 0.0 0.0 0.00 0.00 0.00 65 1011.8
20260505081256 79 0 0.0 0.0 0.00 0.00 0.00 65 1011.7
20260505080258 80 0 0.0 0.0 0.00 0.00 0.00 64 1011.9
20260505075257 80 0 0.0 0.0 0.00 0.00 0.00 63 1011.9
20260505074256 80 0 0.0 0.0 0.00 0.00 0.00 62 1011.9
20260505073256 81 0 0.0 0.0 0.00 0.00 0.00 61 1012.0
20260505072256 81 0 0.0 0.0 0.00 0.00 0.00 58 1012.1
20260505071256 82 0 0.0 0.0 0.00 0.00 0.00 58 1012.2
20260505070253 82 0 0.0 0.0 0.00 0.00 0.00 56 1012.3
20260505065254 82 0 0.0 0.0 0.00 0.00 0.00 55 1012.4
20260505064029 83 0 0.0 0.0 0.00 0.00 0.00 55 1012.6
20260505063641 83 0 0.0 0.0 0.00 0.00 0.00 56 1012.6
20260505062641 83 0 0.0 0.0 0.00 0.00 0.00 58 1012.7
20260505061641 83 0 0.0 0.0 0.00 0.00 0.00 59 1012.8
20260505061301 83 0 0.0 0.0 0.00 0.00 0.00 59 1012.9
20260505060641 83 0 0.0 0.0 0.00 0.00 0.00 57 1012.9
20260505055642 84 0 0.0 0.0 0.00 0.00 0.00 59 1013.1
20260505054641 84 0 0.0 0.0 0.00 0.00 0.00 60 1013.2
20260505053941 84 0 0.0 0.0 0.00 0.00 0.00 59 1013.3
20260505053641 84 0 0.0 0.0 0.00 0.00 0.00 59 1013.4
20260505052642 84 0 0.0 0.0 0.00 0.00 0.00 59 1013.5
20260505051641 84 0 0.0 0.0 0.00 0.00 0.00 59 1013.7
20260505050941 84 0 0.0 0.0 0.00 0.00 0.00 59 1013.8
20260505050642 84 0 0.0 0.0 0.00 0.00 0.00 60 1013.8
20260505041641 82 0 0.0 0.0 0.00 0.00 0.00 55 1014.3
20260505040940 82 315 0.0 0.0 0.00 0.00 0.00 55 1014.4
20260505040641 82 0 0.0 0.0 0.00 0.00 0.00 56 1014.4
20260505035641 82 0 0.0 0.0 0.00 0.00 0.00 56 1014.4
20260505034641 82 0 0.0 0.0 0.00 0.00 0.00 55 1014.6
20260505033940 81 0 0.0 0.0 0.00 0.00 0.00 54 1014.7
20260505033642 81 0 0.0 0.0 0.00 0.00 0.00 55 1014.7
20260505032640 80 0 0.0 0.0 0.00 0.00 0.00 59 1014.9
20260505031641 80 0 0.0 0.0 0.00 0.00 0.00 59 1015.1
20260505030940 79 0 0.0 0.0 0.00 0.00 0.00 58 1015.1
20260505030641 79 0 0.0 0.0 0.00 0.00 0.00 59 1015.1
20260505025641 78 0 0.0 0.0 0.00 0.00 0.00 60 1015.3
20260505024641 78 0 0.0 0.0 0.00 0.00 0.00 61 1015.4
20260505023940 78 0 0.0 0.0 0.00 0.00 0.00 64 1015.5
20260505023809 78 270 0.0 0.0 0.00 0.00 0.00 64 1015.5
20260505022808 77 0 0.0 0.0 0.00 0.00 0.00 65 1015.7
20260505021808 76 0 0.0 0.0 0.00 0.00 0.00 65 1015.8
20260505020940 76 0 0.0 0.0 0.00 0.00 0.00 65 1015.8
20260505020808 76 0 0.0 0.0 0.00 0.00 0.00 66 1015.8
20260505015809 75 0 0.0 0.0 0.00 0.00 0.00 67 1015.9
20260505014809 75 0 0.0 0.0 0.00 0.00 0.00 68 1016.0
20260505013939 74 0 0.0 0.0 0.00 0.00 0.00 68 1016.0
20260505013808 74 0 0.0 0.0 0.00 0.00 0.00 68 1016.0
20260505012808 74 0 0.0 0.0 0.00 0.00 0.00 69 1015.9
20260505011808 73 0 0.0 0.0 0.00 0.00 0.00 70 1015.9
20260505010940 73 0 0.0 0.0 0.00 0.00 0.00 70 1015.9
20260505010809 73 0 0.0 0.0 0.00 0.00 0.00 69 1015.9
20260505005808 73 315 0.0 0.0 0.00 0.00 0.00 72 1015.9
20260505004808 72 0 0.0 0.0 0.00 0.00 0.00 71 1015.9
20260505003940 72 0 0.0 0.0 0.00 0.00 0.00 71 1015.9
20260505003808 72 0 0.0 0.0 0.00 0.00 0.00 71 1015.9
20260505002807 72 90 0.0 0.0 0.00 0.00 0.00 72 1015.9
20260505001808 71 270 0.0 0.0 0.00 0.00 0.00 72 1015.8
20260505000939 71 0 0.0 0.0 0.00 0.00 0.00 72 1015.8
20260505000808 71 0 0.0 0.0 0.00 0.00 0.00 72 1015.9
20260504235808 71 0 0.0 0.0 0.00 0.00 0.00 73 1015.8
20260504234808 70 270 0.0 0.0 0.00 0.00 0.00 73 1015.8
20260504233939 70 0 0.0 0.0 0.00 0.00 0.00 73 1015.7
20260504233807 70 0 0.0 0.0 0.00 0.00 0.00 73 1015.7
20260504232808 70 0 0.0 0.0 0.00 0.00 0.00 74 1015.7
20260504231807 69 0 0.0 0.0 0.00 0.00 0.00 73 1015.6
20260504230939 69 0 0.0 0.0 0.00 0.00 0.00 74 1015.5
20260504230808 69 0 0.0 0.0 0.00 0.00 0.00 74 1015.5
20260504225808 69 0 0.0 0.0 0.00 0.00 0.00 75 1015.4
20260504224808 69 0 0.0 0.0 0.00 0.00 0.00 75 1015.3
20260504223939 69 0 0.0 0.0 0.00 0.00 0.00 74 1015.3
20260504223808 69 0 0.0 0.0 0.00 0.00 0.00 74 1015.3
20260504222808 69 270 0.0 0.0 0.00 0.00 0.00 75 1015.1
20260504221807 68 0 0.0 0.0 0.00 0.00 0.00 75 1015.0
20260504220939 69 0 0.0 0.0 0.00 0.00 0.00 75 1014.9
20260504220808 69 0 0.0 0.0 0.00 0.00 0.00 75 1014.9
20260504215808 68 0 0.0 0.0 0.00 0.00 0.00 75 1015.0
20260504214807 68 315 0.0 0.0 0.00 0.00 0.00 75 1014.9
20260504213939 68 0 0.0 0.0 0.00 0.00 0.00 75 1014.9
20260504213807 68 0 0.0 0.0 0.00 0.00 0.00 75 1014.9
20260504212807 68 0 0.0 0.0 0.00 0.00 0.00 74 1014.8
20260504211758 68 0 0.0 0.0 0.00 0.00 0.00 74 1014.8
20260504210939 68 0 0.0 0.0 0.00 0.00 0.00 74 1014.8
20260504210807 68 0 0.0 0.0 0.00 0.00 0.00 74 1014.8
20260504205806 69 0 0.0 0.0 0.00 0.00 0.00 74 1014.7
20260504204808 69 270 0.0 0.0 0.00 0.00 0.00 73 1014.6
20260504203939 69 315 0.0 0.0 0.00 0.00 0.00 73 1014.6
20260504203807 69 0 0.0 0.0 0.00 0.00 0.00 73 1014.6
20260504202807 69 0 0.0 0.0 0.00 0.00 0.00 72 1014.6
20260504201807 69 0 0.0 0.0 0.00 0.00 0.00 73 1014.6
20260504200938 69 0 0.0 0.0 0.00 0.00 0.00 73 1014.5
20260504200807 69 0 0.0 0.0 0.00 0.00 0.00 72 1014.5
20260504195807 69 0 0.0 0.0 0.00 0.00 0.00 72 1014.5
20260504194807 69 270 0.0 0.0 0.00 0.00 0.00 72 1014.3
20260504193938 69 270 0.0 0.0 0.00 0.00 0.00 72 1014.2
20260504193806 69 0 0.0 0.0 0.00 0.00 0.00 72 1014.3
20260504192807 69 0 0.0 0.0 0.00 0.00 0.00 72 1014.3
20260504191806 69 315 0.0 0.0 0.00 0.00 0.00 72 1014.4
20260504190938 69 0 0.0 0.0 0.00 0.00 0.00 72 1014.5
20260504190806 69 270 0.0 0.0 0.00 0.00 0.00 72 1014.4
20260504185807 70 0 0.0 0.0 0.00 0.00 0.00 72 1014.4
20260504184806 70 0 0.0 0.0 0.00 0.00 0.00 72 1014.3
20260504184656 70 270 0.0 0.0 0.00 0.00 0.00 73 1014.4
20260504183806 70 270 0.0 0.0 0.00 0.00 0.00 72 1014.4
20260504182807 70 0 0.0 0.0 0.00 0.00 0.00 72 1014.5
20260504181807 70 270 0.0 0.0 0.00 0.00 0.00 72 1014.6
20260504180938 70 0 0.0 0.0 0.00 0.00 0.00 72 1014.6
20260504180807 70 0 0.0 0.0 0.00 0.00 0.00 72 1014.6
20260504175806 70 0 0.0 0.0 0.00 0.00 0.00 72 1014.6
20260504174806 70 315 0.0 0.0 0.00 0.00 0.00 71 1014.6
20260504173938 70 0 0.0 0.0 0.00 0.00 0.00 70 1014.5
20260504173806 70 0 0.0 0.0 0.00 0.00 0.00 70 1014.5
20260504172806 70 0 0.0 0.0 0.00 0.00 0.00 70 1014.5
20260504171807 70 0 0.0 0.0 0.00 0.00 0.00 70 1014.6
20260504170938 71 0 0.0 0.0 0.00 0.00 0.00 70 1014.7
20260504170807 71 0 0.0 0.0 0.00 0.00 0.00 70 1014.7
20260504150937 71 0 0.0 0.0 0.00 0.00 0.00 72 1016.0
20260504150806 71 0 0.0 0.0 0.00 0.00 0.00 72 1016.0
20260504140936 72 0 0.0 0.0 0.00 0.00 0.00 69 1016.4
20260504140805 72 0 0.0 0.0 0.00 0.00 0.00 69 1016.4
20260504130805 72 0 0.0 0.0 0.00 0.00 0.00 65 1016.5